Weather History for Gonzales, LA

Change the Weather History Date:

Tuesday, March 5, 2013

  Actual Average (KBTR) Record (KBTR)
Temperature  
Mean Temperature 63 °F 59 °F  
Max Temperature 74 °F 70 °F 86 °F (1905)
Min Temperature 52 °F 48 °F 24 °F (2002)
Degree Days  
Heating Degree Days 2 7  
Month to date heating degree days 37  
Since 1 July heating degree days 1372  
Cooling Degree Days 0 1  
Month to date cooling degree days 5  
Year to date cooling degree days 36  
Growing Degree Days 13 (Base 50)    
Moisture  
Dew Point 51 °F    
Average Humidity 65    
Maximum Humidity 92    
Minimum Humidity 32    
Precipitation  
Precipitation 0.00 in 0.15 in 2.56 in (1948)
Month to date precipitation 0.78  
Year to date precipitation 11.54  
Snow  
Snow 0.00 in - - ()
Month to date snowfall  
Since 1 July snowfall  
Snow Depth -    
Sea Level Pressure  
Sea Level Pressure 30.04 in    
Wind  
Wind Speed 7 mph (WSW)    
Max Wind Speed 15 mph    
Max Gust Speed 24 mph    
Visibility 10 miles    
Events Rain    
T = Trace of Precipitation, MM = Missing Value Source: NWS Daily Summary

Daily Weather History Graph

Daily Weather History Graph

Search for Another Location

Airport:

Trip Planner

Search our weather history database for the weather conditions in past years. The results will help you decide how hot, cold, wet, or windy it might be!

Date:

Astronomy

Mar. 05, 2013 Rise Set
Actual Time 6:25 AM CST 6:05 PM CST
Civil Twilight 6:01 AM CST 6:29 PM CST
Nautical Twilight 5:33 AM CST 6:57 PM CST
Astronomical Twilight 5:05 AM CST 7:25 PM CST
Moon 1:19 AM CST (3/5) 12:03 PM CST (3/5)
Length of Visible Light 12h 28m
Length of Day
11h 40m
Last Quarter, 40% of the Moon is Illuminated
Mar 5
Last Quarter
Mar 11
New
Mar 19
First Quarter
Mar 27
Full
Apr 2
Last Quarter

Hourly Weather History & Observations

Time (CST) Temp. Dew Point Humidity Pressure Visibility Wind Dir Wind Speed Gust Speed Precip Events Conditions
12:15 AM 62.2 °F 58.1 °F 86% 29.94 in 10.0 mi South 6.9 mph - N/A   Overcast
12:35 AM 62.2 °F 58.1 °F 86% 29.94 in 10.0 mi South 6.9 mph - N/A   Overcast
12:55 AM 61.7 °F 57.9 °F 87% 29.94 in 10.0 mi South 6.9 mph - N/A   Overcast
1:15 AM 61.5 °F 57.9 °F 88% 29.94 in 10.0 mi South 5.8 mph - N/A   Overcast
1:55 AM 61.7 °F 57.7 °F 87% 29.94 in 10.0 mi South 4.6 mph - N/A   Overcast
2:15 AM 62.6 °F 58.1 °F 85% 29.94 in 10.0 mi South 6.9 mph - N/A   Overcast
2:35 AM 61.9 °F 57.7 °F 86% 29.93 in 10.0 mi South 5.8 mph - N/A   Overcast
2:55 AM 61.2 °F 57.6 °F 88% 29.93 in 10.0 mi South 6.9 mph - N/A   Mostly Cloudy
3:15 AM 61.7 °F 57.4 °F 86% 29.93 in 10.0 mi South 5.8 mph - N/A   Overcast
3:35 AM 61.7 °F 57.6 °F 86% 29.93 in 10.0 mi South 5.8 mph - N/A   Mostly Cloudy
3:55 AM 60.8 °F 57.6 °F 89% 29.92 in 10.0 mi South 8.1 mph - N/A   Scattered Clouds
4:15 AM 61.2 °F 57.6 °F 88% 29.92 in 10.0 mi South 6.9 mph - N/A   Scattered Clouds
4:35 AM 61.7 °F 57.7 °F 87% 29.93 in 10.0 mi South 8.1 mph - N/A   Mostly Cloudy
4:55 AM 61.7 °F 58.1 °F 88% 29.92 in 10.0 mi South 8.1 mph - N/A   Overcast
5:15 AM 62.1 °F 58.3 °F 87% 29.93 in 10.0 mi South 8.1 mph - N/A   Overcast
5:35 AM 63.1 °F 58.6 °F 85% 29.93 in 10.0 mi South 8.1 mph - N/A   Overcast
5:55 AM 63.5 °F 58.6 °F 84% 29.95 in 10.0 mi SSW 6.9 mph - N/A   Overcast
6:15 AM 63.7 °F 58.8 °F 84% 29.96 in 10.0 mi South 5.8 mph - N/A   Overcast
6:35 AM 63.5 °F 59.0 °F 85% 29.97 in 10.0 mi South 8.1 mph - N/A   Overcast
7:15 AM 63.3 °F 59.9 °F 89% 30.02 in 7.0 mi SSW 4.6 mph - N/A Rain Rain
7:35 AM 62.6 °F 60.1 °F 91% 30.02 in 7.0 mi Calm Calm - N/A   Light Drizzle
7:55 AM 62.6 °F 60.3 °F 92% 30.03 in 7.0 mi South 3.5 mph - N/A   Overcast
8:15 AM 63.1 °F 60.6 °F 91% 30.03 in 10.0 mi Calm Calm - N/A   Overcast
8:35 AM 63.5 °F 60.8 °F 91% 30.03 in 7.0 mi South 4.6 mph - N/A   Overcast
8:55 AM 64.2 °F 60.8 °F 89% 30.03 in 10.0 mi South 3.5 mph - N/A   Overcast
9:15 AM 65.3 °F 61.2 °F 86% 30.03 in 7.0 mi South 6.9 mph - N/A   Overcast
9:35 AM 67.8 °F 62.1 °F 82% 30.03 in 7.0 mi SW 8.1 mph - N/A   Mostly Cloudy
9:55 AM 70.2 °F 62.4 °F 76% 30.03 in 10.0 mi SW 11.5 mph 19.6 mph N/A   Mostly Cloudy
10:15 AM 72.1 °F 62.2 °F 71% 30.03 in 10.0 mi SW 13.8 mph 24.2 mph N/A   Scattered Clouds
10:35 AM 73.8 °F 61.9 °F 66% 30.02 in 10.0 mi WSW 11.5 mph 20.7 mph N/A   Mostly Cloudy
10:55 AM 72.1 °F 60.8 °F 67% 30.03 in 10.0 mi WSW 8.1 mph 19.6 mph N/A   Overcast
11:15 AM 72.1 °F 60.1 °F 66% 30.03 in 10.0 mi WSW 5.8 mph - N/A   Overcast
11:35 AM 71.6 °F 60.3 °F 67% 30.03 in 10.0 mi West 8.1 mph 17.3 mph N/A   Overcast
11:55 AM 69.8 °F 61.3 °F 74% 30.03 in 7.0 mi West 4.6 mph - N/A Rain Rain
12:15 PM 70.0 °F 61.3 °F 74% 30.03 in 10.0 mi West 6.9 mph - N/A   Overcast
12:35 PM 71.1 °F 60.1 °F 68% 30.03 in 10.0 mi West 11.5 mph 21.9 mph N/A   Overcast
12:55 PM 72.1 °F 59.9 °F 65% 30.02 in 10.0 mi West 10.4 mph 20.7 mph N/A   Overcast
1:15 PM 68.9 °F 57.0 °F 66% 30.03 in 10.0 mi NW 11.5 mph 21.9 mph N/A   Overcast
1:35 PM 72.1 °F 57.4 °F 60% 30.01 in 10.0 mi West 10.4 mph 18.4 mph N/A   Scattered Clouds
1:55 PM 73.4 °F 55.9 °F 54% 30.01 in 10.0 mi WNW 11.5 mph 17.3 mph N/A   Clear
2:15 PM 74.3 °F 54.0 °F 49% 30.00 in 10.0 mi NW 11.5 mph 20.7 mph N/A   Clear
2:35 PM 74.5 °F 52.0 °F 45% 30.01 in 10.0 mi WNW 9.2 mph 17.3 mph N/A   Clear
3:15 PM 73.4 °F 48.0 °F 41% 30.02 in 10.0 mi WNW 13.8 mph 21.9 mph N/A   Clear
3:35 PM 73.0 °F 48.2 °F 41% 30.02 in 10.0 mi WNW 11.5 mph 20.7 mph N/A   Clear
3:55 PM 72.5 °F 46.6 °F 40% 30.03 in 10.0 mi WNW 13.8 mph 23.0 mph N/A   Clear
4:15 PM 72.3 °F 44.4 °F 37% 30.03 in 10.0 mi NW 15.0 mph 21.9 mph N/A   Clear
4:35 PM 71.6 °F 41.5 °F 34% 30.03 in 10.0 mi NW 15.0 mph 19.6 mph N/A   Clear
4:55 PM 70.7 °F 39.4 °F 32% 30.04 in 10.0 mi WNW 8.1 mph 18.4 mph N/A   Clear
5:15 PM 69.6 °F 39.6 °F 33% 30.05 in 10.0 mi WNW 10.4 mph 18.4 mph N/A   Clear
5:35 PM 68.4 °F 37.6 °F 32% 30.07 in 10.0 mi WNW 9.2 mph 17.3 mph N/A   Clear
5:55 PM 67.3 °F 37.6 °F 34% 30.07 in 10.0 mi WNW 6.9 mph 17.3 mph N/A   Clear
6:15 PM 65.7 °F 37.8 °F 36% 30.08 in 10.0 mi WNW 8.1 mph - N/A   Clear
6:35 PM 64.6 °F 37.4 °F 37% 30.09 in 10.0 mi WNW 9.2 mph - N/A   Clear
6:55 PM 64.4 °F 36.0 °F 35% 30.10 in 10.0 mi NW 8.1 mph - N/A   Clear
7:15 PM 63.1 °F 36.0 °F 36% 30.11 in 10.0 mi NW 8.1 mph - N/A   Clear
7:35 PM 62.4 °F 35.8 °F 37% 30.11 in 10.0 mi NW 6.9 mph - N/A   Clear
7:55 PM 61.9 °F 35.8 °F 38% 30.12 in 10.0 mi NW 5.8 mph - N/A   Clear
8:15 PM 59.9 °F 36.7 °F 42% 30.13 in 10.0 mi NNW 3.5 mph - N/A   Clear
8:35 PM 58.6 °F 37.4 °F 45% 30.15 in 10.0 mi NNW 3.5 mph - N/A   Clear
8:55 PM 56.8 °F 38.5 °F 50% 30.16 in 10.0 mi Calm Calm - N/A   Clear
9:15 PM 57.0 °F 38.5 °F 50% 30.16 in 10.0 mi NNW 3.5 mph - N/A   Clear
9:35 PM 52.5 °F 41.5 °F 66% 30.17 in 10.0 mi WNW 3.5 mph - N/A   Clear
9:55 PM 55.6 °F 38.8 °F 53% 30.18 in 10.0 mi NNW 5.8 mph - N/A   Clear
10:15 PM 54.9 °F 38.3 °F 54% 30.19 in 10.0 mi NNW 8.1 mph - N/A   Clear
10:35 PM 55.2 °F 36.7 °F 50% 30.20 in 10.0 mi NNW 6.9 mph - N/A   Clear
10:55 PM 55.2 °F 35.2 °F 47% 30.20 in 10.0 mi NNW 6.9 mph - N/A   Clear
11:15 PM 53.8 °F 34.9 °F 49% 30.21 in 10.0 mi NNW 6.9 mph - N/A   Clear
11:35 PM 53.2 °F 34.7 °F 49% 30.21 in 10.0 mi NNW 4.6 mph - N/A   Clear
11:55 PM 52.7 °F 34.7 °F 50% 30.21 in 10.0 mi NNW 9.2 mph - N/A   Clear